Weather History for Horseshoe Bay, TX

Change the Weather History Date:

Monday, December 24, 2012

  Actual Average (KBMQ) Record (KBMQ)
Temperature  
Mean Temperature 50 °F -  
Max Temperature 66 °F 56 °F 70 °F (2005)
Min Temperature 33 °F 35 °F 23 °F (2004)
Degree Days  
Heating Degree Days 16    
Moisture  
Dew Point 31 °F    
Average Humidity 54    
Maximum Humidity 100    
Minimum Humidity 21    
Precipitation  
Precipitation 0.00 in - - ()
Sea Level Pressure  
Sea Level Pressure 29.87 in    
Wind  
Wind Speed 1 mph (ESE)    
Max Wind Speed 6 mph    
Max Gust Speed -    
Visibility 10 miles    
Events      
Averages and records for this station are not official NWS values.
T = Trace of Precipitation, MM = Missing Value Source: NWS Daily Summary

Daily Weather History Graph

Daily Weather History Graph

Search for Another Location

Airport:

Trip Planner

Search our weather history database for the weather conditions in past years. The results will help you decide how hot, cold, wet, or windy it might be!

Date:

Astronomy

Dec. 24, 2012 Rise Set
Actual Time 6:28 AM MST 4:38 PM MST
Civil Twilight 6:01 AM MST 5:05 PM MST
Nautical Twilight 5:31 AM MST 5:35 PM MST
Astronomical Twilight 5:02 AM MST 6:04 PM MST
Moon 2:02 PM MST (12/24) 3:13 AM MST (12/24)
Length of Visible Light 11h 03m
Length of Day
10h 10m
Waxing Gibbous, 89% of the Moon is Illuminated
Dec 24
Waxing Gibbous
Dec 28
Full
Jan 4
Last Quarter
Jan 11
New
Jan 18
First Quarter

Hourly Weather History & Observations

Time (MST) Temp. Windchill Dew Point Humidity Pressure Visibility Wind Dir Wind Speed Gust Speed Precip Events Conditions
12:15 AM 50.0 °F - 42.8 °F 76% 29.92 in 10.0 mi Calm Calm - N/A   Clear
12:35 AM 50.0 °F - 42.8 °F 76% 29.92 in 10.0 mi Calm Calm - N/A   Clear
12:55 AM 48.2 °F - 42.8 °F 82% 29.92 in 10.0 mi Calm Calm - N/A   Clear
1:15 AM 46.4 °F - 41.0 °F 81% 29.92 in 10.0 mi Calm Calm - N/A   Clear
1:35 AM 46.4 °F - 41.0 °F 81% 29.92 in 10.0 mi Calm Calm - N/A   Clear
1:55 AM 44.6 °F - 39.2 °F 81% 29.92 in 10.0 mi Calm Calm - N/A   Clear
2:15 AM 42.8 °F - 39.2 °F 87% 29.92 in 10.0 mi Calm Calm - N/A   Clear
2:55 AM 41.0 °F - 37.4 °F 87% 29.93 in 10.0 mi Calm Calm - N/A   Clear
3:15 AM 41.0 °F - 39.2 °F 93% 29.93 in 10.0 mi Calm Calm - N/A   Clear
3:35 AM 41.0 °F - 41.0 °F 100% 29.93 in 10.0 mi Calm Calm - N/A   Clear
3:55 AM 42.8 °F - 42.8 °F 100% 29.93 in 10.0 mi Calm Calm - N/A   Clear
4:15 AM 41.0 °F - 41.0 °F 100% 29.94 in 10.0 mi Calm Calm - N/A   Clear
4:35 AM 37.4 °F - 37.4 °F 100% 29.95 in 10.0 mi Calm Calm - N/A   Clear
4:55 AM 37.4 °F - 37.4 °F 100% 29.95 in 10.0 mi Calm Calm - N/A   Clear
5:15 AM 35.6 °F - 35.6 °F 100% 29.97 in 10.0 mi Calm Calm - N/A   Clear
5:35 AM 37.4 °F - 37.4 °F 100% 29.97 in 10.0 mi Calm Calm - N/A   Clear
5:55 AM 35.6 °F - 35.6 °F 100% 29.98 in 10.0 mi Calm Calm - N/A   Clear
6:15 AM 33.8 °F - 33.8 °F 100% 29.98 in 10.0 mi Calm Calm - N/A   Clear
6:35 AM 33.8 °F - 33.8 °F 100% 29.99 in 10.0 mi Calm Calm - N/A   Clear
6:55 AM 33.8 °F - 33.8 °F 100% 29.99 in 10.0 mi Calm Calm - N/A   Clear
7:15 AM 35.6 °F - 35.6 °F 100% 29.99 in 10.0 mi Calm Calm - N/A   Clear
7:35 AM 41.0 °F - 35.6 °F 81% 29.99 in 10.0 mi Calm Calm - N/A   Clear
7:55 AM 44.6 °F - 33.8 °F 66% 30.00 in 10.0 mi Calm Calm - N/A   Clear
8:15 AM 46.4 °F 45.2 °F 33.8 °F 62% 30.01 in 10.0 mi NNW 3.5 mph - N/A   Clear
8:35 AM 48.2 °F - 35.6 °F 62% 30.02 in 10.0 mi Calm Calm - N/A   Clear
8:55 AM 50.0 °F - 32.0 °F 50% 30.03 in 10.0 mi North 5.8 mph - N/A   Clear
9:15 AM 51.8 °F - 30.2 °F 44% 30.02 in 10.0 mi North 3.5 mph - N/A   Clear
9:55 AM 51.8 °F - 30.2 °F 44% 30.02 in 10.0 mi North 4.6 mph - N/A   Clear
10:15 AM 53.6 °F - 30.2 °F 41% 30.01 in 10.0 mi Calm Calm - N/A   Clear
10:35 AM 55.4 °F - 30.2 °F 38% 30.00 in 10.0 mi ENE 3.5 mph - N/A   Clear
10:55 AM 57.2 °F - 28.4 °F 33% 29.98 in 10.0 mi ENE 3.5 mph - N/A   Clear
11:15 AM 59.0 °F - 28.4 °F 31% 29.97 in 10.0 mi Calm Calm - N/A   Clear
11:55 AM 60.8 °F - 28.4 °F 29% 29.92 in 10.0 mi Calm Calm - N/A   Clear
12:15 PM 62.6 °F - 28.4 °F 27% 29.91 in 10.0 mi NE 4.6 mph - N/A   Clear
12:35 PM 62.6 °F - 28.4 °F 27% 29.90 in 10.0 mi Calm Calm - N/A   Clear
12:55 PM 62.6 °F - 26.6 °F 26% 29.88 in 10.0 mi Calm Calm - N/A   Clear
1:15 PM 64.4 °F - 26.6 °F 24% 29.86 in 10.0 mi NE 3.5 mph - N/A   Clear
1:35 PM 64.4 °F - 26.6 °F 24% 29.85 in 10.0 mi ESE 4.6 mph - N/A   Clear
1:55 PM 66.2 °F - 24.8 °F 21% 29.84 in 10.0 mi Calm Calm - N/A   Clear
2:15 PM 66.2 °F - 26.6 °F 23% 29.83 in 10.0 mi East 3.5 mph - N/A   Clear
2:35 PM 66.2 °F - 26.6 °F 23% 29.82 in 10.0 mi ESE 3.5 mph - N/A   Clear
2:55 PM 66.2 °F - 26.6 °F 23% 29.81 in 10.0 mi SE 3.5 mph - N/A   Clear
3:15 PM 64.4 °F - 26.6 °F 24% 29.80 in 10.0 mi East 3.5 mph - N/A   Clear
3:35 PM 64.4 °F - 26.6 °F 24% 29.79 in 10.0 mi ESE 5.8 mph - N/A   Clear
3:55 PM 62.6 °F - 26.6 °F 26% 29.78 in 10.0 mi ESE 4.6 mph - N/A   Clear
4:15 PM 62.6 °F - 28.4 °F 27% 29.78 in 10.0 mi ESE 3.5 mph - N/A   Clear
4:35 PM 60.8 °F - 28.4 °F 29% 29.78 in 10.0 mi SE 3.5 mph - N/A   Clear
4:55 PM 59.0 °F - 28.4 °F 31% 29.78 in 10.0 mi SE 3.5 mph - N/A   Clear
5:15 PM 55.4 °F - 28.4 °F 36% 29.78 in 10.0 mi Calm Calm - N/A   Clear
5:35 PM 53.6 °F - 26.6 °F 35% 29.78 in 10.0 mi Calm Calm - N/A   Clear
5:55 PM 53.6 °F - 26.6 °F 35% 29.79 in 10.0 mi SE 3.5 mph - N/A   Clear
6:15 PM 53.6 °F - 26.6 °F 35% 29.79 in 10.0 mi SE 3.5 mph - N/A   Clear
6:35 PM 53.6 °F - 26.6 °F 35% 29.79 in 10.0 mi Calm Calm - N/A   Clear
6:55 PM 51.8 °F - 26.6 °F 38% 29.78 in 10.0 mi Calm Calm - N/A   Clear
7:15 PM 51.8 °F - 26.6 °F 38% 29.78 in 10.0 mi Calm Calm - N/A   Clear
7:35 PM 46.4 °F - 28.4 °F 50% 29.78 in 10.0 mi Calm Calm - N/A   Clear
7:55 PM 46.4 °F - 28.4 °F 50% 29.78 in 10.0 mi Calm Calm - N/A   Clear
8:15 PM 50.0 °F - 28.4 °F 43% 29.77 in 10.0 mi SE 4.6 mph - N/A   Clear
8:35 PM 51.8 °F - 26.6 °F 38% 29.78 in 10.0 mi Calm Calm - N/A   Clear
8:55 PM 50.0 °F - 28.4 °F 43% 29.79 in 10.0 mi Calm Calm - N/A   Scattered Clouds
9:15 PM 50.0 °F - 28.4 °F 43% 29.79 in 10.0 mi SSW 3.5 mph - N/A   Mostly Cloudy
9:35 PM 50.0 °F - 28.4 °F 43% 29.77 in 10.0 mi Calm Calm - N/A   Overcast
9:55 PM 51.8 °F - 26.6 °F 38% 29.76 in 10.0 mi Calm Calm - N/A   Mostly Cloudy
10:15 PM 51.8 °F - 26.6 °F 38% 29.75 in 10.0 mi SE 4.6 mph - N/A   Mostly Cloudy
10:35 PM 51.8 °F - 26.6 °F 38% 29.74 in 10.0 mi Calm Calm - N/A   Mostly Cloudy
10:55 PM 51.8 °F - 26.6 °F 38% 29.73 in 10.0 mi Calm Calm - N/A   Scattered Clouds
11:15 PM 51.8 °F - 28.4 °F 41% 29.72 in 10.0 mi SSE 3.5 mph - N/A   Mostly Cloudy
11:35 PM 51.8 °F - 28.4 °F 41% 29.72 in 10.0 mi Calm Calm - N/A   Overcast
11:55 PM 51.8 °F - 28.4 °F 41% 29.72 in 10.0 mi Calm Calm - N/A   Overcast